Helicity
-23 -28 34 46 54 60 54 80 96 96 81 77 70 80 81 82 83 82 76 55 43 48 52 53 54 58 63 68 64 41 41 44 44 31 41 40 44 44 43 43 43 29 38
6 -16 40 60 54 62 76 86 92 75 68 75 65 55 53 58 54 46 36 25 30 41 36 30 22 18 22 33 36 38 39 40 42 42 30 14 16 26 35 36 34 32 30
9 14 44 57 66 82 73 82 86 74 68 55 44 37 35 38 33 26 25 25 32 41 41 33 29 29 23 27 36 36 37 31 29 25 7 -12 -8 -4 14 33 32 19 22
38 32 36 56 80 72 72 79 78 66 54 38 27 19 25 16 17 21 21 17 26 32 35 36 37 37 34 34 35 38 37 30 25 28 9 -2 -12 -7 -4 18 22 43 39
50 17 37 62 66 69 72 82 62 56 40 21 11 15 14 11 10 11 15 12 23 26 29 34 37 38 37 36 34 36 40 31 26 13 8 12 12 20 29 14 34 25 52
6 9 37 50 60 75 71 61 62 49 33 18 16 14 10 5 2 3 2 9 17 20 21 23 26 27 29 28 28 28 32 24 25 16 20 20 13 18 33 28 11 24 48
1 18 20 40 56 61 57 56 54 46 29 18 6 2 -2 -7 -14 -14 -4 3 5 12 12 8 8 9 5 2 1 8 17 21 1 16 31 42 41 36 37 55 35 24 24
16 2 1 24 46 48 51 55 41 26 11 12 2 -5 -14 -27 -27 -15 -10 -4 5 2 1 2 -2 -3 -4 -7 -9 -9 1 12 12 16 31 36 37 51 57 51 47 44 22
-6 -6 1 18 30 40 38 26 16 17 6 -3 -16 -21 -31 -39 -31 -22 -10 -5 -7 -15 -20 -15 -14 -16 -12 -12 -10 -2 3 8 6 7 19 25 28 35 44 68 62 67 70
-23 -10 12 8 7 8 0 6 12 5 -9 -18 -20 -21 -21 -17 -17 -20 -19 -22 -23 -29 -29 -28 -23 -20 -19 -20 -13 3 9 14 15 10 8 13 28 33 34 38 53 60 62
-26 -16 -19 -2 -13 -21 -18 -14 -2 -3 -9 -10 -10 -3 -7 -15 -11 -10 -17 -27 -30 -24 -31 -41 -40 -35 -37 -38 -26 -4 23 32 33 34 31 9 15 24 35 45 51 64 71
-14 -28 -19 -23 -25 -24 -22 -21 -23 -19 -20 -16 -5 -3 -8 5 6 4 2 -13 -17 -15 -28 -37 -30 -28 -18 -13 -7 -4 14 11 25 34 48 43 49 55 55 55 50 56 72
-24 -24 -50 -32 -31 -22 -23 -29 -31 -24 -10 -5 -4 -3 12 24 26 28 35 17 19 33 24 17 14 14 6 5 14 17 20 26 42 29 16 30 55 65 63 71 69 53 55
-9 -23 -26 -25 -20 -25 -22 -14 -14 1 2 4 1 28 55 65 64 62 63 52 40 56 59 48 42 37 46 59 46 17 15 48 65 71 52 38 42 54 73 89 95 95 75
12 -14 -23 -9 -6 12 18 17 8 8 18 18 30 67 90 87 84 78 71 84 96 92 95 86 84 82 101 110 84 64 75 73 108 113 92 95 100 104 92 91 89 101 129
-2 3 8 2 1 15 0 20 -4 -2 21 38 61 90 87 83 93 81 117 170 154 138 108 108 93 105 137 120 129 127 122 117 111 105 114 125 174 186 173 158 140 120 97
27 75 74 102 86 64 20 31 39 -13 32 56 78 86 73 111 155 195 213 188 161 138 119 122 138 146 176 192 168 162 163 161 129 76 60 84 120 179 225 226 203 170 132
113 182 225 193 225 181 82 70 89 126 56 119 147 157 166 217 224 207 187 165 115 123 117 171 171 187 232 246 232 215 198 156 124 101 96 98 89 106 149 216 223 220 202
220 298 333 303 389 346 86 68 147 259 185 184 183 170 197 203 151 147 121 163 52 95 193 152 162 184 206 219 210 220 187 143 108 91 80 71 99 129 123 180 227 218 223
355 420 371 348 351 232 93 204 237 228 176 159 137 133 139 153 170 138 90 160 186 158 172 162 164 152 139 166 153 155 120 94 117 110 99 112 102 105 104 111 93 117 191
314 364 285 240 131 105 155 141 116 79 67 79 97 131 161 135 143 165 178 175 161 169 155 169 139 186 157 151 113 103 58 103 162 179 147 94 82 72 61 53 48 38 63
135 144 87 68 50 64 44 36 26 39 45 94 125 166 180 174 153 154 155 164 163 139 180 204 153 120 93 89 96 75 132 131 143 150 118 92 62 22 38 50 54 46 28
40 -6 21 50 54 65 88 81 77 78 105 125 144 158 182 205 207 197 197 183 111 115 141 109 90 123 131 63 115 124 183 195 180 127 150 135 96 28 23 18 23 21 43
78 85 87 98 107 95 66 73 85 91 112 137 158 179 220 212 187 164 165 185 157 174 212 154 132 117 83 173 88 132 129 144 171 142 128 136 83 108 81 52 68 55 58
107 108 74 90 93 88 102 111 119 148 171 189 209 203 158 172 177 192 220 184 191 203 219 211 174 164 83 75 73 102 101 106 100 158 145 86 73 35 29 40 55 63 105
110 115 104 135 124 113 137 156 179 207 203 228 232 236 252 253 203 179 178 199 235 262 219 165 176 209 100 125 124 124 112 99 95 69 92 111 93 68 82 44 100 114 86
Wind_Speed
32 31 29 29 31 34 37 36 37 37 38 39 40 40 41 43 44 46 48 49 50 51 52 52 52 51 50 50 48 44 44 44 44 44 46 45 43 42 42 44 44 44 41
31 29 30 30 32 34 34 33 34 34 35 37 36 36 39 42 44 46 47 48 50 51 53 54 54 53 52 51 50 49 49 48 47 47 46 43 44 42 41 41 43 42 41
31 29 27 28 30 31 31 31 30 32 33 33 32 35 39 40 42 44 45 47 48 50 51 52 52 53 52 52 52 51 51 51 50 49 47 44 41 35 37 42 42 42 43
27 26 26 28 30 30 30 28 28 30 30 29 30 34 37 38 41 43 44 46 48 49 51 52 52 52 52 53 52 53 53 53 53 51 49 47 43 40 40 42 47 46 44
26 26 25 28 28 28 28 28 29 28 27 27 30 32 35 37 40 42 44 45 47 50 52 53 53 53 53 53 53 53 54 54 54 52 50 49 44 44 48 45 52 45 43
26 26 29 27 27 27 28 28 28 27 27 27 29 32 34 37 39 41 43 45 47 49 51 53 53 53 53 53 54 54 54 55 55 53 52 51 45 46 50 52 49 46 45
25 24 24 26 27 27 27 28 27 26 26 27 29 31 34 36 39 42 45 47 49 50 53 52 54 54 53 54 56 57 56 55 53 53 52 50 48 48 50 52 50 45 43
25 22 23 25 25 25 25 25 26 25 26 28 30 32 34 36 38 41 44 46 48 50 52 54 55 54 54 56 58 59 58 55 53 53 52 50 50 50 53 53 49 47 44
23 23 22 24 21 23 25 25 24 25 26 28 29 32 34 35 38 42 44 46 48 49 50 52 55 56 56 57 58 59 59 57 55 53 53 53 52 52 51 52 54 53 53
23 24 24 20 19 22 22 24 25 25 25 26 29 31 32 35 38 40 43 46 48 48 49 51 54 56 57 58 60 60 60 58 57 56 54 52 54 53 51 52 56 59 58
26 28 28 26 24 25 26 25 25 25 26 27 28 29 30 32 36 39 41 44 46 46 49 50 51 53 56 58 59 61 60 59 60 58 57 55 54 55 55 55 56 59 59
43 38 33 29 29 28 25 25 25 26 26 27 27 27 28 30 34 38 39 42 45 45 48 51 52 52 54 57 59 60 58 59 61 63 62 61 59 59 58 57 56 58 60
39 31 30 29 29 26 23 22 22 21 21 23 23 24 27 30 33 37 39 44 46 47 49 51 50 51 54 57 62 61 61 60 61 65 67 67 64 63 63 62 61 59 58
31 32 35 32 24 20 18 19 19 19 19 21 22 24 27 30 34 37 40 44 48 47 51 52 53 55 57 60 62 64 63 62 62 63 66 69 70 71 71 70 69 67 63
30 34 26 19 16 17 17 17 18 17 18 20 22 28 30 33 37 39 42 45 49 53 56 59 59 62 62 65 65 64 63 62 63 64 64 65 65 67 71 73 74 75 75
27 22 19 15 15 20 24 23 26 27 19 21 26 33 34 36 36 42 46 49 52 57 59 62 64 64 63 64 64 62 62 63 66 67 66 67 68 68 69 69 71 71 74
14 14 11 14 19 22 26 34 35 30 42 23 28 32 34 39 43 45 49 53 58 59 63 66 67 64 67 67 69 66 68 69 70 68 65 63 64 65 67 68 70 71 73
16 15 20 15 20 27 36 35 29 29 35 30 36 39 41 44 47 49 52 58 59 61 65 68 68 71 70 73 75 74 73 75 73 66 65 66 66 67 69 72 73 73 72
17 18 20 21 20 23 26 30 33 39 38 37 38 42 47 49 48 52 55 57 58 62 66 67 69 72 74 77 79 74 77 73 72 63 65 69 68 70 72 75 78 78 79
18 19 20 22 26 31 30 35 36 38 39 41 43 46 46 49 51 53 59 62 62 65 69 69 71 72 72 79 79 79 79 72 63 63 68 70 71 74 77 80 82 83 84
25 24 25 26 28 27 32 37 38 37 39 41 43 47 50 50 55 58 59 61 64 69 69 70 71 76 77 82 80 90 79 65 67 71 70 71 76 78 80 83 86 87 89
29 29 28 28 28 28 31 34 38 38 41 43 47 51 52 54 56 57 60 65 67 68 69 71 73 75 74 78 83 85 89 86 70 81 76 77 80 81 85 90 92 93 92
33 32 31 32 32 33 34 35 39 41 43 47 52 53 55 58 59 60 62 64 66 65 68 69 71 77 82 75 73 79 92 96 99 81 86 77 83 87 92 95 95 91 92
34 34 34 34 35 36 38 42 46 49 51 50 50 53 57 59 60 61 65 68 69 68 69 68 69 75 75 85 74 71 71 79 93 109 80 91 91 97 100 98 95 92 92
33 35 37 40 42 43 46 49 51 53 51 50 52 56 58 64 65 66 70 70 67 63 65 67 70 75 74 78 78 80 80 78 78 85 105 99 94 91 95 95 94 91 87
35 36 38 40 46 48 49 51 53 53 53 57 61 67 69 71 71 70 71 64 60 63 67 69 72 71 69 69 73 74 75 77 81 81 90 93 93 89 90 83 84 82 79
Wind_Direction
110 103 98 92 87 86 83 73 66 58 55 50 48 38 29 28 23 23 25 26 27 26 24 19 15 15 14 16 20 29 16 2 354 349 340 340 344 348 348 342 336 341 342
106 103 101 95 92 87 81 72 63 58 52 46 35 25 26 28 31 31 31 30 27 26 25 22 18 14 11 9 6 359 356 347 340 331 340 348 344 346 349 346 344 342 339
103 102 99 95 90 86 81 72 61 54 50 43 28 26 29 33 34 33 31 28 28 25 22 19 18 16 13 11 5 357 352 346 343 333 340 348 356 7 0 346 341 346 335
96 95 95 93 90 86 81 69 59 57 49 34 24 25 30 33 31 32 29 26 25 22 18 17 15 13 11 7 5 358 352 347 347 348 344 341 346 353 358 349 337 333 333
93 94 92 92 87 85 79 72 70 57 41 30 25 25 31 30 30 28 27 28 24 20 18 16 14 11 8 7 2 358 354 348 347 348 345 343 343 339 329 342 325 347 328
90 90 94 91 86 82 80 74 64 56 44 31 31 35 35 33 30 30 30 28 25 22 19 16 14 12 7 6 2 356 353 349 348 348 343 337 342 338 330 332 342 337 328
91 85 86 89 88 82 78 73 65 58 43 39 37 37 33 33 35 33 28 24 22 22 20 20 20 17 14 9 1 355 352 350 350 347 345 341 339 335 331 328 336 343 342
92 85 84 86 82 78 73 67 63 54 48 45 46 41 42 43 40 33 29 25 23 21 22 20 17 15 11 7 1 358 355 355 353 347 345 344 336 333 326 326 334 333 336
90 87 77 79 72 73 74 67 56 50 54 53 48 42 42 41 34 28 24 21 20 18 17 16 12 10 8 4 360 357 356 358 356 350 343 339 335 331 328 322 320 324 322
87 85 86 71 64 69 65 66 61 57 55 50 50 48 42 33 28 25 19 16 13 13 12 9 7 4 2 359 358 357 354 353 352 351 347 341 332 329 327 324 317 313 316
95 99 95 90 83 85 79 69 66 67 67 67 60 50 39 36 28 21 16 14 14 13 7 6 3 1 359 358 357 353 349 348 345 344 341 338 333 327 325 322 320 314 313
132 128 112 99 97 94 75 73 73 71 69 65 53 48 39 33 24 19 18 15 14 11 5 360 358 355 352 351 351 349 348 343 338 331 328 321 322 319 322 323 322 319 313
132 113 110 102 103 89 74 70 68 59 60 52 39 27 25 20 15 13 12 2 3 8 3 359 1 359 353 350 345 345 342 338 335 323 317 315 319 319 316 315 317 318 318
118 116 119 116 92 77 55 69 58 52 51 44 30 33 24 15 8 4 3 1 352 2 359 357 356 354 352 349 345 343 342 340 335 330 321 313 311 310 310 310 308 308 313
113 124 111 92 84 73 59 62 47 39 43 35 25 16 10 1 355 354 353 355 354 352 351 349 348 346 346 344 342 342 342 342 339 334 330 326 323 318 313 311 308 304 300
114 104 97 75 27 360 355 352 342 342 13 17 5 357 354 353 354 348 347 349 350 349 347 345 343 343 344 343 342 343 342 341 338 335 332 328 324 323 320 317 313 311 307
74 32 38 16 7 356 346 329 331 348 321 4 358 356 355 352 348 350 345 343 342 342 340 340 340 341 339 339 336 336 334 333 332 332 333 332 330 328 325 323 319 316 310
358 8 355 15 357 343 354 348 358 15 350 7 4 356 353 352 345 347 345 344 343 343 341 339 338 336 336 333 330 330 329 328 328 329 329 328 326 324 322 320 317 315 313
337 344 354 357 358 359 358 16 10 7 6 9 2 353 347 350 349 349 345 344 343 342 340 339 338 335 333 330 328 328 326 327 327 328 327 325 324 323 320 317 315 312 309
5 7 7 12 5 0 13 19 14 13 10 1 355 351 353 351 346 345 342 342 342 339 338 338 336 335 333 329 327 324 324 324 326 326 325 323 321 319 317 314 311 308 306
6 6 2 1 8 19 11 9 9 2 357 356 355 349 347 348 346 344 341 341 340 338 337 336 335 333 331 330 325 322 321 321 321 320 320 319 318 317 315 312 309 306 303
34 23 20 24 26 23 16 7 358 356 350 349 350 349 347 346 345 344 341 339 339 337 336 335 334 332 331 332 325 322 318 316 315 316 315 315 314 314 312 311 308 304 301
32 31 28 26 22 13 13 10 3 357 351 345 343 343 344 345 345 343 342 339 336 334 332 332 332 331 328 328 329 324 317 312 314 316 313 314 314 313 311 309 305 302 300
31 28 25 22 16 10 8 357 350 345 342 343 342 341 341 344 342 338 334 333 331 331 331 332 333 333 331 326 327 326 323 317 314 310 313 312 311 310 308 307 304 300 298
14 9 4 3 4 1 355 351 348 346 347 346 344 341 338 336 336 335 333 333 334 336 336 335 334 333 332 327 326 324 321 319 316 313 309 311 311 311 310 307 304 301 297
0 359 358 5 2 1 357 355 353 350 347 343 338 335 335 336 336 336 335 337 340 339 337 335 334 333 333 333 330 328 325 322 319 318 314 314 314 315 316 313 308 306 303